Snowfall_Accumulation
0.0 0.0 0.0 0.0 0.0 0.0 1.5 0.1 1.0 0.1 0.0 0.0 0.0 0.1 0.1 0.0 0.0 0.0 0.0 0.0 0.1 1.0 2.7 2.8 1.6 0.9 0.2 0.1 0.0 0.0 0.0 0.0 0.0 0.0 0.0 0.0 0.0 0.0 0.0 0.0 0.0 0.0 0.0 0.0
0.2 0.0 0.0 0.1 0.0 0.1 0.1 0.0 0.0 0.0 0.0 0.0 0.0 0.0 0.0 0.0 0.0 0.0 0.0 0.0 0.1 0.2 0.5 1.5 1.1 0.7 0.2 0.2 0.1 0.0 0.0 0.0 0.0 0.0 0.0 0.0 0.0 0.0 0.0 0.0 0.0 0.0 0.0 0.0
0.4 0.0 0.1 2.2 0.1 0.0 2.5 0.1 0.1 1.2 0.2 0.0 0.0 0.0 0.1 0.1 0.0 0.0 0.0 0.0 0.1 0.2 0.3 0.3 0.2 0.1 0.2 0.1 0.1 0.0 0.2 0.1 0.0 0.0 0.0 0.0 0.0 0.0 0.0 0.0 0.0 0.0 0.1 0.1
0.4 0.2 3.0 0.4 0.0 0.0 0.0 0.0 0.0 0.0 0.1 0.1 0.1 0.1 0.1 0.0 0.0 0.0 0.0 0.0 0.0 0.0 0.0 0.0 0.1 0.0 0.0 0.0 0.0 0.0 0.0 0.0 0.1 0.0 0.0 0.0 0.0 0.0 0.0 0.0 0.0 0.0 0.0 0.1
1.5 0.4 0.0 0.1 0.0 0.0 0.0 0.1 0.0 0.1 0.1 0.0 0.0 0.0 0.1 0.0 0.0 0.0 0.0 0.0 0.0 0.0 0.0 0.0 0.0 0.0 0.0 0.0 0.0 0.0 0.0 0.0 0.0 0.0 0.1 0.2 0.1 0.1 0.0 0.0 0.1 0.0 0.0 0.0
1.0 0.6 2.4 0.1 0.0 0.0 0.0 0.8 0.0 0.1 0.1 0.1 0.0 0.3 0.3 0.0 0.0 0.0 0.0 0.0 0.0 0.0 0.0 0.0 0.0 0.0 0.0 0.0 0.0 0.0 0.0 0.0 0.0 0.0 0.0 0.0 0.0 0.1 0.1 0.1 0.1 0.1 0.3 0.3
0.5 0.9 0.7 0.0 0.0 0.0 0.8 0.3 0.0 0.1 0.1 0.1 2.5 0.5 0.1 0.0 0.0 0.0 0.0 0.0 0.0 0.0 0.0 0.0 0.0 0.0 0.0 0.0 0.0 0.0 0.0 0.0 0.0 0.0 0.0 0.0 0.0 0.0 0.0 0.2 0.4 0.3 0.3 0.3
0.7 0.9 1.3 0.0 0.0 0.1 0.2 0.0 0.0 0.0 0.0 0.0 0.1 0.1 0.0 0.0 0.0 0.0 0.0 0.0 0.0 0.0 0.0 0.0 0.0 0.0 0.0 0.0 0.0 0.0 0.0 0.0 0.0 0.0 0.1 0.0 0.0 0.0 0.0 0.0 0.0 0.2 0.5 2.4
0.3 1.0 0.0 0.0 0.0 0.0 0.0 0.0 0.0 0.0 0.0 0.0 0.1 0.1 0.0 0.0 0.0 0.0 0.0 0.0 0.0 0.0 0.0 0.0 0.0 0.0 0.0 0.0 0.0 0.0 0.0 0.0 0.0 0.0 0.1 0.2 0.3 0.2 0.3 0.1 0.9 2.0 2.9 3.0
0.0 0.0 0.0 0.0 0.0 0.0 0.0 0.0 0.0 0.0 0.0 0.0 0.1 0.1 0.1 0.0 0.0 0.0 0.0 0.0 0.0 0.0 0.0 0.0 0.0 0.0 0.0 0.0 0.0 0.0 0.0 0.0 0.0 0.1 0.1 0.3 0.9 1.1 1.6 2.1 2.4 4.6 5.4 7.9
0.1 0.2 0.0 0.0 0.0 0.0 0.0 0.0 0.0 0.0 0.0 0.0 0.0 0.1 0.1 0.0 0.0 0.0 0.0 0.0 0.0 0.0 0.0 0.0 0.0 0.0 0.0 0.0 0.0 0.1 0.0 0.0 0.1 0.2 0.1 0.4 1.4 2.8 3.8 6.2 6.3 8.4 10.2 10.5
4.1 0.1 0.1 0.0 0.0 0.0 0.0 0.0 0.0 0.0 0.0 0.0 0.0 0.0 0.0 0.1 0.0 0.0 0.0 0.0 0.0 0.0 0.0 0.0 0.0 0.0 0.0 0.1 0.2 0.3 0.2 0.3 0.9 0.6 0.9 0.9 1.6 5.0 nan nan nan nan nan 9.6
1.4 0.0 0.0 0.0 0.0 0.0 0.0 0.1 0.1 0.3 0.1 0.1 0.1 0.0 0.0 0.0 0.3 nan 0.2 0.2 0.2 0.5 0.3 0.2 0.1 0.2 0.2 0.2 0.3 0.7 0.8 0.5 1.7 1.2 1.9 2.4 2.8 4.2 8.3 10.9 nan nan nan nan
0.0 0.1 0.8 0.3 2.3 0.1 0.0 0.1 0.1 0.0 0.0 0.0 0.0 0.1 0.1 0.3 0.4 2.4 5.1 4.5 5.0 4.3 4.9 4.3 2.9 4.3 3.0 1.3 1.4 2.1 1.9 0.6 3.4 4.6 5.0 5.6 5.6 6.2 5.2 6.3 9.7 11.3 nan nan
0.0 0.0 0.1 0.1 0.1 0.1 0.0 0.0 0.0 0.0 0.0 0.0 0.0 0.0 0.0 0.1 0.1 0.4 2.0 6.3 8.2 9.4 10.1 8.9 8.6 10.5 7.9 6.4 5.9 5.7 4.9 6.8 6.4 6.0 5.8 5.4 5.3 5.4 5.2 5.7 6.3 6.7 4.6 2.7
0.0 0.0 0.0 0.0 0.0 0.0 0.0 0.0 0.0 0.0 0.0 0.0 0.0 0.1 0.1 0.1 0.1 0.1 0.1 0.1 2.1 5.5 8.3 12.5 11.4 14.3 11.5 7.4 7.1 5.5 5.0 2.0 2.3 3.3 3.3 3.8 4.3 4.4 3.9 3.7 3.5 3.9 4.6 5.8
0.0 0.0 0.0 0.0 0.0 0.0 0.0 0.0 0.0 0.0 0.0 0.0 0.1 0.0 0.0 0.1 0.2 0.8 2.8 4.1 6.2 8.7 10.2 10.1 14.0 10.5 9.1 5.1 3.1 3.8 3.2 2.1 0.2 2.0 2.3 2.5 2.8 3.2 3.2 4.7 5.5 4.8 7.9 10.6
0.0 0.0 0.0 0.0 0.0 0.0 0.0 0.0 0.0 0.0 0.0 0.2 1.1 4.8 7.5 7.0 6.6 9.5 11.5 10.9 10.5 11.1 8.6 7.4 4.8 3.1 2.4 0.9 0.4 1.3 1.6 1.5 1.5 2.4 2.2 3.7 2.8 2.1 3.4 3.4 2.8 3.5 4.8 4.2
0.0 0.0 0.0 0.0 0.0 0.0 0.0 0.2 0.5 1.5 5.1 4.9 6.8 7.0 7.2 7.7 4.6 5.2 6.3 9.7 10.0 3.2 6.5 1.6 0.4 0.3 0.5 0.6 0.4 1.3 2.1 3.3 2.0 1.5 2.0 5.6 6.0 2.5 5.1 7.0 5.9 7.3 3.7 5.0
0.0 0.0 0.0 0.1 0.0 0.2 1.9 2.6 2.7 3.0 3.5 3.0 7.7 8.6 6.9 10.6 9.7 10.7 6.7 7.0 6.3 5.8 0.8 0.5 0.5 0.6 0.6 0.5 1.4 1.4 2.3 4.3 2.8 5.1 6.7 3.7 8.7 13.0 9.2 7.0 5.4 8.0 14.8 11.8
0.7 0.3 0.5 1.2 2.2 3.1 4.2 4.4 2.9 1.8 4.5 7.4 8.6 11.1 11.0 9.5 9.4 10.5 5.6 2.7 3.8 1.1 0.4 0.4 1.1 1.6 1.0 1.1 0.9 2.9 5.5 8.8 9.4 6.4 6.3 12.5 15.8 11.2 12.9 14.6 13.1 15.7 18.1 14.4
3.9 4.4 5.7 4.3 3.1 4.8 4.5 3.9 2.6 6.1 7.1 11.1 15.9 16.9 13.0 8.3 9.1 8.5 9.6 4.7 4.0 2.4 2.1 2.2 1.8 3.6 3.0 4.8 2.3 7.9 3.7 4.3 6.8 7.1 7.7 11.4 12.6 18.7 19.9 17.2 17.1 18.7 18.4 18.8
4.6 3.9 5.8 6.9 6.9 6.7 7.0 7.4 10.9 9.6 13.6 12.9 14.5 11.2 7.5 6.8 6.4 6.4 7.0 2.4 2.7 4.3 2.6 4.6 5.2 5.5 5.9 9.5 9.7 11.4 11.2 11.1 11.2 10.4 11.1 16.6 15.6 25.1 15.6 15.0 16.4 16.6 21.8 15.1
4.8 4.3 5.0 4.9 4.7 3.5 5.9 7.8 6.2 7.5 12.1 9.8 10.9 13.3 6.6 9.8 12.5 4.7 4.0 6.2 6.4 15.8 13.5 8.5 9.5 6.3 6.6 13.1 13.5 15.1 13.7 15.2 15.8 17.4 9.2 9.0 23.2 18.6 14.9 22.0 14.4 17.7 18.1 15.3
3.3 4.2 4.0 4.0 4.1 4.4 3.5 4.4 4.6 6.2 5.5 5.1 5.5 4.7 2.5 3.9 8.9 6.5 7.6 7.4 7.2 6.2 9.1 7.1 6.8 7.4 17.0 18.0 16.8 16.5 17.2 15.5 16.7 19.2 14.9 20.5 18.0 25.6 22.4 17.9 21.9 22.2 22.8 19.5
2.1 2.6 2.9 3.2 2.3 2.3 2.3 2.9 3.4 5.5 4.5 9.7 7.1 13.3 11.3 6.9 6.5 5.9 7.8 7.8 6.0 6.7 6.3 14.1 18.3 18.3 17.4 13.1 15.1 15.5 12.2 8.9 13.1 12.8 16.0 15.8 15.2 12.7 15.5 14.1 19.3 23.9 29.5 31.4
3.1 1.4 2.5 2.4 2.4 2.6 2.6 3.2 5.5 7.5 6.1 10.1 10.0 8.7 5.3 8.8 11.0 7.4 8.9 13.0 12.6 13.8 14.2 16.5 14.1 10.3 9.1 14.3 12.6 11.8 11.6 12.2 10.5 10.1 18.7 22.6 21.3 27.8 25.7 25.5 28.1 29.0 26.3 24.9
Water_Equivalent
0.00 0.00 0.00 0.00 0.01 0.00 0.31 0.03 0.16 0.01 0.01 0.00 0.01 0.02 0.01 0.01 0.00 0.00 0.00 0.01 0.03 0.22 0.84 0.84 0.48 0.24 0.06 0.03 0.00 0.00 0.00 0.00 0.00 0.00 0.00 0.00 0.00 0.00 0.00 0.00 0.00 0.00 0.00 0.00
0.04 0.00 0.00 0.02 0.01 0.02 0.02 0.01 0.00 0.00 0.00 0.00 0.00 0.00 0.00 0.00 0.00 0.00 0.00 0.01 0.02 0.05 0.11 0.37 0.25 0.19 0.05 0.05 0.03 0.02 0.02 0.00 0.00 0.00 0.00 0.00 0.00 0.00 0.00 0.00 0.00 0.00 0.00 0.00
0.06 0.01 0.02 0.33 0.03 0.01 0.91 0.01 0.02 0.23 0.03 0.01 0.01 0.01 0.02 0.01 0.00 0.00 0.00 0.01 0.02 0.04 0.07 0.06 0.04 0.02 0.04 0.02 0.01 0.01 0.07 0.04 0.01 0.01 0.00 0.00 0.00 0.00 0.00 0.00 0.00 0.00 0.02 0.01
0.10 0.04 0.45 0.07 0.00 0.00 0.01 0.01 0.01 0.01 0.04 0.03 0.01 0.02 0.03 0.00 0.00 0.00 0.00 0.00 0.00 0.00 0.00 0.00 0.02 0.01 0.01 0.00 0.00 0.00 0.00 0.00 0.05 0.02 0.00 0.00 0.00 0.00 0.00 0.01 0.00 0.00 0.00 0.03
0.33 0.09 0.00 0.02 0.00 0.00 0.00 0.03 0.00 0.02 0.03 0.01 0.00 0.01 0.02 0.00 0.00 0.00 0.00 0.00 0.00 0.00 0.00 0.00 0.00 0.00 0.00 0.00 0.00 0.00 0.00 0.00 0.00 0.00 0.04 0.09 0.04 0.02 0.01 0.01 0.02 0.00 0.00 0.01
0.19 0.09 0.45 0.02 0.00 0.00 0.00 0.14 0.00 0.02 0.02 0.02 0.00 0.06 0.06 0.00 0.00 0.00 0.00 0.00 0.00 0.00 0.00 0.00 0.00 0.00 0.00 0.00 0.00 0.00 0.00 0.00 0.00 0.00 0.00 0.00 0.00 0.02 0.02 0.02 0.02 0.01 0.07 0.06
0.13 0.20 0.14 0.00 0.00 0.00 0.15 0.06 0.00 0.03 0.02 0.02 0.76 0.12 0.03 0.01 0.00 0.00 0.00 0.00 0.00 0.00 0.00 0.00 0.00 0.00 0.00 0.00 0.00 0.00 0.00 0.00 0.00 0.00 0.00 0.00 0.00 0.00 0.01 0.08 0.13 0.07 0.09 0.08
0.19 0.19 0.25 0.00 0.00 0.01 0.03 0.00 0.00 0.01 0.01 0.01 0.01 0.01 0.01 0.00 0.00 0.00 0.00 0.00 0.00 0.00 0.00 0.00 0.00 0.00 0.00 0.00 0.00 0.00 0.00 0.00 0.00 0.01 0.01 0.00 0.00 0.00 0.00 0.01 0.01 0.07 0.13 0.57
0.05 0.19 0.00 0.00 0.00 0.00 0.00 0.00 0.00 0.01 0.00 0.00 0.02 0.02 0.01 0.00 0.00 0.00 0.00 0.00 0.00 0.00 0.00 0.00 0.00 0.00 0.00 0.00 0.00 0.00 0.00 0.00 0.00 0.00 0.01 0.05 0.05 0.04 0.08 0.03 0.27 0.48 0.57 0.59
0.01 0.01 0.00 0.00 0.00 0.00 0.00 0.00 0.00 0.00 0.00 0.00 0.03 0.02 0.01 0.00 0.00 0.00 0.00 0.00 0.00 0.00 0.00 0.00 0.00 0.00 0.00 0.00 0.00 0.00 0.00 0.00 0.00 0.02 0.03 0.05 0.20 0.23 0.30 0.43 0.55 0.87 0.94 1.25
0.02 0.03 0.00 0.00 0.00 0.00 0.00 0.00 0.00 0.00 0.00 0.00 0.01 0.02 0.02 0.01 0.00 0.00 0.00 0.00 0.00 0.00 0.00 0.00 0.00 0.00 0.00 0.00 0.00 0.02 0.00 0.01 0.02 0.05 0.03 0.08 0.25 0.52 0.65 0.96 1.08 1.41 1.67 1.78
0.86 0.01 0.02 0.00 0.00 0.00 0.00 0.00 0.00 0.00 0.00 0.00 0.00 0.01 0.00 0.02 0.00 0.00 0.00 0.00 0.00 0.01 0.00 0.00 0.00 0.00 0.00 0.01 0.02 0.04 0.03 0.07 0.19 0.15 0.20 0.18 0.29 0.84 nan nan nan nan nan 1.87
0.37 0.00 0.00 0.01 0.00 0.00 0.01 0.02 0.02 0.08 0.02 0.01 0.03 0.01 0.01 0.00 0.06 nan 0.04 0.04 0.04 0.10 0.05 0.03 0.03 0.04 0.04 0.04 0.05 0.11 0.13 0.09 0.34 0.26 0.38 0.46 0.51 0.71 1.22 1.79 nan nan nan nan
0.01 0.03 0.24 0.10 0.71 0.04 0.01 0.02 0.02 0.00 0.00 0.01 0.01 0.01 0.01 0.06 0.09 0.57 0.92 1.07 0.98 0.68 0.79 0.65 0.46 0.65 0.59 0.33 0.33 0.46 0.42 0.18 0.82 0.99 0.96 1.02 1.02 1.13 0.96 1.04 1.47 1.61 nan nan
0.00 0.00 0.02 0.02 0.02 0.02 0.00 0.00 0.00 0.00 0.00 0.00 0.00 0.01 0.00 0.02 0.03 0.08 0.38 1.12 1.60 1.85 1.97 1.68 1.54 1.92 1.75 1.60 1.51 1.33 1.12 1.38 1.29 1.22 1.17 1.06 0.98 0.90 0.85 0.88 0.92 0.91 0.68 0.57
0.00 0.00 0.00 0.00 0.00 0.00 0.00 0.00 0.00 0.00 0.00 0.00 0.00 0.02 0.02 0.01 0.02 0.02 0.02 0.02 0.31 0.69 1.10 2.00 1.83 2.29 1.87 1.50 1.51 1.16 1.01 0.58 0.49 0.63 0.65 0.72 0.77 0.73 0.61 0.60 0.55 0.58 0.62 0.71
0.00 0.00 0.00 0.00 0.00 0.00 0.00 0.00 0.00 0.00 0.00 0.01 0.01 0.00 0.01 0.02 0.04 0.12 0.35 0.57 0.87 1.14 1.27 1.25 1.70 1.34 1.20 0.84 0.55 0.71 0.59 0.40 0.07 0.38 0.43 0.44 0.52 0.57 0.52 0.71 0.79 0.68 1.14 1.63
0.00 0.00 0.00 0.00 0.00 0.00 0.00 0.00 0.00 0.00 0.01 0.03 0.19 0.86 1.25 1.11 0.78 1.08 1.29 1.30 1.39 1.44 1.00 0.84 0.56 0.38 0.35 0.15 0.07 0.24 0.32 0.30 0.32 0.47 0.43 0.69 0.51 0.41 0.59 0.58 0.48 0.58 0.79 0.71
0.00 0.00 0.00 0.00 0.00 0.00 0.01 0.04 0.09 0.27 0.86 0.79 1.15 1.06 1.04 1.08 0.51 0.55 0.70 1.35 1.43 0.38 0.63 0.19 0.12 0.04 0.07 0.10 0.06 0.26 0.44 0.73 0.43 0.29 0.39 1.75 1.08 0.49 0.82 1.11 0.96 1.22 0.65 0.76
0.00 0.00 0.00 0.01 0.01 0.05 0.29 0.37 0.42 0.39 0.45 0.41 1.17 1.34 0.95 1.50 1.37 1.49 0.91 0.79 0.60 0.61 0.10 0.08 0.08 0.08 0.09 0.08 0.39 0.29 0.52 1.03 0.59 1.03 1.28 0.66 1.53 2.26 1.48 2.21 0.88 1.30 2.52 1.91
0.19 0.07 0.11 0.20 0.31 0.47 0.71 0.76 0.47 0.21 0.51 1.04 1.30 1.58 1.43 1.18 1.26 1.56 0.86 0.35 0.31 0.13 0.07 0.12 0.16 0.24 0.17 0.18 0.19 0.67 1.24 1.85 1.82 1.16 1.15 2.30 2.88 1.96 2.17 2.55 2.29 2.74 3.09 2.38
0.61 0.83 0.99 0.64 0.38 0.54 0.53 0.44 0.28 0.79 0.86 1.41 2.16 2.39 1.80 0.85 1.14 1.05 1.29 0.50 0.41 0.78 0.32 0.33 0.25 1.12 0.80 1.57 0.44 1.67 0.79 0.93 1.32 1.31 1.39 2.10 2.22 3.19 3.21 2.78 2.68 3.12 3.15 3.24
0.60 0.50 0.81 1.00 1.02 0.75 0.78 0.82 1.43 1.26 1.79 1.66 1.92 1.40 0.99 0.77 0.70 0.81 0.80 0.22 0.32 1.22 0.34 0.76 1.59 1.82 1.94 2.10 2.03 2.35 2.26 2.15 2.09 1.83 1.92 2.86 2.63 4.12 2.21 2.16 2.51 2.58 3.64 2.43
0.57 0.50 0.55 0.55 0.53 0.37 0.64 0.80 0.62 0.70 1.55 1.04 1.25 1.69 0.75 1.36 1.98 0.51 0.47 2.04 2.09 3.90 2.85 1.65 2.34 2.07 2.17 2.64 2.54 2.82 2.57 2.75 2.63 2.88 1.42 2.78 3.98 2.82 2.19 3.24 1.92 2.58 2.78 2.39
0.38 0.46 0.42 0.43 0.40 0.54 0.33 0.40 0.41 0.53 0.46 0.43 0.44 0.38 0.27 0.48 1.47 0.90 1.33 1.31 2.20 1.39 1.67 2.17 2.24 2.44 3.15 3.23 2.90 2.78 2.77 2.38 2.64 3.05 2.16 3.28 2.92 4.18 3.57 2.62 3.06 3.29 3.26 2.88
0.27 0.37 0.41 0.37 0.30 0.33 0.33 0.38 0.42 0.56 0.55 1.24 0.82 2.32 1.81 1.08 0.97 0.93 1.29 1.88 0.99 1.96 1.11 2.73 3.57 3.53 3.27 2.22 2.55 2.58 1.90 1.35 1.95 1.90 2.28 2.24 2.21 1.79 2.17 1.99 2.81 3.64 4.56 4.98
0.44 0.35 0.38 0.36 0.34 0.36 0.35 0.42 0.75 0.93 1.19 1.77 1.52 1.52 0.92 1.53 1.97 1.59 2.43 2.35 2.27 2.54 2.61 3.22 2.73 2.65 1.55 2.55 2.10 1.83 1.71 1.80 2.76 1.36 2.58 3.04 2.87 4.02 3.54 3.62 4.18 4.60 3.85 3.30
SL_Ratio
5.0 nan nan nan 4.1 4.5 4.8 4.8 6.1 5.3 5.4 nan 4.1 4.0 4.3 4.3 nan nan nan 3.8 4.0 4.3 3.2 3.3 3.4 3.8 3.3 2.5 nan nan nan nan nan nan nan nan nan nan nan nan nan nan nan nan
5.5 4.0 4.0 5.0 4.0 3.3 3.1 4.5 nan nan 5.0 nan 5.0 4.4 nan nan nan nan nan 3.7 3.7 4.4 4.7 3.9 4.4 3.7 3.8 3.5 3.4 2.4 2.5 0.0 nan nan nan nan nan nan nan nan nan nan nan nan
7.5 5.0 5.2 6.8 4.6 3.3 2.7 4.2 4.4 5.2 4.6 3.4 2.8 3.3 4.2 4.5 nan nan nan 4.1 4.2 4.4 4.5 4.7 4.8 4.5 4.8 4.5 3.9 3.4 2.8 2.6 2.4 2.2 nan nan nan nan nan 5.0 nan 4.2 5.3 5.7
3.7 5.3 6.7 5.5 nan nan 3.8 3.3 3.6 3.9 3.9 3.4 3.9 3.9 4.1 nan 0.0 nan nan nan nan 5.0 5.0 5.0 4.4 4.4 4.1 nan nan nan nan 5.0 2.7 2.9 3.3 nan nan nan 10.0 3.9 2.9 nan 3.8 4.8
4.5 4.8 5.5 4.1 nan nan 5.0 4.9 nan 4.1 3.7 3.3 nan 3.3 4.3 nan nan nan nan nan nan nan nan nan nan nan nan 0.0 nan nan 7.5 nan nan 2.7 2.8 2.7 3.2 3.9 5.0 4.8 4.2 5.0 0.0 3.9
5.4 7.6 5.4 5.6 nan nan nan 5.5 nan 3.5 3.7 3.6 nan 4.9 4.8 nan nan nan nan nan nan nan nan nan nan nan nan nan nan 7.5 6.9 nan nan nan nan nan 5.0 2.9 3.9 3.9 5.5 4.1 4.0 4.4
3.8 4.5 5.2 5.0 nan nan 5.0 5.4 nan 3.4 3.4 3.7 3.3 4.1 4.4 4.0 nan nan nan nan nan nan nan nan nan nan nan nan 5.0 nan nan nan 0.0 10.0 0.0 0.0 0.0 6.0 2.6 2.6 3.3 3.8 3.8 4.3
3.5 4.7 5.4 nan nan 5.1 5.0 nan nan 3.4 3.7 3.8 4.0 3.8 4.3 nan nan nan nan nan nan nan nan nan nan nan nan 6.7 10.0 nan nan nan 10.0 4.6 4.9 nan 0.0 6.7 5.0 6.1 3.4 2.8 3.9 4.2
4.8 5.3 3.6 nan nan nan nan nan 3.3 3.1 nan 4.0 3.9 4.1 4.2 nan nan nan nan nan nan nan nan nan nan nan 5.0 7.5 6.7 10.0 nan nan 6.7 6.7 4.9 4.9 4.9 4.6 3.5 3.3 3.4 4.2 5.1 5.1
4.5 4.0 nan nan nan nan nan nan nan nan nan 3.3 4.2 4.2 4.8 0.0 nan nan nan nan nan nan nan nan nan nan nan 10.0 6.7 8.0 nan 6.7 8.0 5.0 5.0 5.4 4.5 4.8 5.5 4.8 4.4 5.3 5.7 6.3
4.5 5.8 nan nan nan nan nan nan nan nan nan 3.3 4.2 4.6 4.8 5.7 5.0 nan nan 5.0 nan nan nan 10.0 10.0 nan nan 8.3 7.5 7.3 5.5 4.3 5.2 4.4 4.8 4.9 5.5 5.4 5.8 6.4 5.8 6.0 6.1 5.9
4.8 4.2 3.7 5.0 nan nan nan nan nan nan 2.5 nan 3.3 5.0 10.0 5.7 5.0 nan nan nan 6.7 6.3 10.0 6.7 10.0 7.5 6.7 7.1 7.2 6.8 6.1 4.7 4.6 4.2 4.4 4.6 5.4 6.0 nan nan nan nan nan 5.1
3.7 2.9 3.0 3.9 nan nan 3.7 3.2 3.1 3.7 3.8 3.9 4.4 5.3 5.0 6.0 4.6 nan 4.3 4.4 4.7 4.9 5.3 4.7 4.6 5.2 5.6 5.5 6.1 6.1 6.0 6.0 4.9 4.6 4.9 5.2 5.4 6.0 6.8 6.1 nan nan nan nan
3.9 3.3 3.4 3.6 3.2 3.2 3.5 3.6 3.3 5.0 nan 3.8 4.8 5.0 4.9 5.0 4.4 4.1 5.5 4.2 5.1 6.3 6.2 6.6 6.3 6.6 5.0 4.1 4.4 4.6 4.5 3.0 4.2 4.6 5.2 5.4 5.4 5.5 5.5 6.1 6.6 7.0 nan nan
nan nan 3.4 3.8 3.6 3.2 3.3 nan nan nan nan nan nan 5.2 6.0 4.8 5.3 5.4 5.4 5.6 5.2 5.1 5.1 5.3 5.5 5.5 4.5 4.0 3.9 4.3 4.4 4.9 5.0 4.9 5.0 5.1 5.4 6.0 6.1 6.5 6.9 7.3 6.7 4.7
nan nan nan nan nan nan 3.3 nan nan nan nan nan nan 5.5 5.8 5.3 5.8 5.4 5.0 5.1 6.8 8.0 7.5 6.3 6.2 6.3 6.2 4.9 4.7 4.7 5.0 3.5 4.7 5.2 5.2 5.3 5.6 6.0 6.3 6.2 6.3 6.6 7.5 8.3
nan nan nan nan nan nan nan nan nan nan nan 6.4 6.4 0.0 6.2 5.9 5.6 6.8 7.9 7.2 7.1 7.6 8.0 8.1 8.2 7.8 7.6 6.1 5.6 5.3 5.4 5.3 3.0 5.3 5.5 5.6 5.4 5.7 6.1 6.6 7.0 7.1 7.0 6.5
nan nan nan nan nan nan nan nan nan nan 6.1 6.1 5.7 5.6 6.0 6.3 8.4 8.8 8.9 8.4 7.5 7.7 8.6 8.9 8.6 8.0 7.1 5.7 5.6 5.4 5.1 4.9 4.5 5.0 5.2 5.3 5.5 5.1 5.6 5.9 5.7 6.0 6.1 5.9
nan nan nan nan nan 5.0 4.3 4.6 5.1 5.5 5.9 6.2 5.9 6.6 6.9 7.1 9.1 9.6 9.1 7.2 7.0 8.5 10.3 8.3 3.0 6.2 6.3 6.3 5.4 4.9 4.7 4.4 4.7 5.2 5.2 3.2 5.5 5.1 6.2 6.3 6.1 5.9 5.7 6.5
nan nan nan 3.6 3.3 4.1 6.5 6.9 6.3 7.6 7.7 7.4 6.6 6.4 7.3 7.0 7.1 7.2 7.4 8.9 10.4 9.5 8.0 7.0 6.4 7.1 6.9 5.4 3.5 4.9 4.3 4.2 4.8 5.0 5.3 5.6 5.7 5.8 6.2 3.2 6.1 6.1 5.9 6.2
3.9 4.4 4.8 6.1 7.2 6.5 6.0 5.8 6.2 8.6 8.7 7.0 6.6 7.0 7.7 8.0 7.4 6.7 6.6 7.7 12.0 8.3 6.2 3.3 6.5 6.7 6.2 5.9 4.8 4.3 4.5 4.8 5.1 5.5 5.5 5.5 5.5 5.7 6.0 5.7 5.7 5.7 5.9 6.1
6.3 5.3 5.8 6.8 8.2 8.8 8.4 8.8 9.3 7.7 8.3 7.8 7.4 7.1 7.2 9.8 7.9 8.1 7.4 9.4 9.8 3.0 6.5 6.7 7.1 3.2 3.7 3.1 5.2 4.7 4.7 4.6 5.1 5.4 5.6 5.4 5.7 5.9 6.2 6.2 6.4 6.0 5.8 5.8
7.6 7.7 7.2 6.8 6.7 8.8 8.9 8.9 7.6 7.6 7.6 7.7 7.6 8.0 7.5 8.8 9.1 7.9 8.7 11.0 8.3 3.5 7.5 6.0 3.2 3.0 3.0 4.5 4.8 4.9 5.0 5.2 5.4 5.7 5.8 5.8 5.9 6.1 7.1 7.0 6.5 6.5 6.0 6.2
8.4 8.7 9.1 9.0 8.9 9.5 9.2 9.8 10.0 10.8 7.8 9.4 8.7 7.9 8.7 7.2 6.3 9.3 8.7 3.0 3.1 4.0 4.7 5.2 4.1 3.0 3.0 5.0 5.3 5.3 5.3 5.5 6.0 6.0 6.5 3.2 5.8 6.6 6.8 6.8 7.5 6.9 6.5 6.4
8.7 9.1 9.5 9.3 10.2 8.2 10.6 10.9 11.2 11.8 11.9 11.7 12.5 12.4 9.2 8.1 6.1 7.3 5.7 5.6 3.3 4.4 5.4 3.3 3.0 3.0 5.4 5.6 5.8 5.9 6.2 6.5 6.3 6.3 6.9 6.3 6.2 6.1 6.3 6.8 7.2 6.8 7.0 6.8
7.7 7.0 7.1 8.7 7.4 7.0 7.1 7.5 8.0 9.7 8.1 7.8 8.7 5.7 6.2 6.4 6.7 6.4 6.0 4.2 6.1 3.4 5.7 5.1 5.1 5.2 5.3 5.9 5.9 6.0 6.5 6.6 6.7 6.7 7.0 7.0 6.9 7.1 7.1 7.1 6.9 6.6 6.5 6.3
6.9 4.1 6.6 6.6 7.1 7.2 7.4 7.6 7.4 8.1 5.1 5.7 6.6 5.7 5.7 5.8 5.6 4.6 3.7 5.5 5.5 5.4 5.5 5.1 5.2 3.9 5.8 5.6 6.0 6.5 6.8 6.8 3.8 7.4 7.2 7.4 7.4 6.9 7.3 7.0 6.7 6.3 6.8 7.5